Home   Weather   Tampere   Past weeks

Flag for Finland Past Weather in Tampere, Finland — Yesterday and Last 2 Weeks

Now
27 °F

Clear.


Feels Like: 20 °F
Forecast: 28 / 36 °F
Wind: 6 mph from West

Location: Tampere / Pirkkala

Current Time: Jan 21, 2017 at 4:28:24 am

Latest Report: Jan 21, 2017 at 3:50 am


Visibility: 10 mi

Pressure: 30.07 "Hg

Humidity: 93%

Dew Point: 25 °F

Location of TampereLocation

Past Weather in Tampere — Graph

°F

Tampere Temperature Yesterday

Maximum temperature yesterday: 32 °F (at 12:20 am)
Minimum temperature yesterday: 21 °F (at 5:20 am)
Average temperature yesterday: 29 °F

High & Low Weather Summary for the Past Weeks

 TemperatureHumidityPressure
High37 °F (Jan 19, 3:20 pm)100% (Jan 7, 7:20 pm)30.63 "Hg (Jan 7, 7:20 pm)
Low-11 °F (Jan 6, 4:50 am)60% (Jan 19, 9:20 pm)29.00 "Hg (Jan 13, 1:50 am)
Average26 °F91%29.84 "Hg
* Reported Jan 6 3:20 am — Jan 21 3:20 am, Tampere, Weather by CustomWeather, © 2017

Note: Actual official high and low records may vary slightly from our data, if they occured in-between our weather recording intervals... More about our weather records

Advertising

Tampere Weather History for the Previous 24 Hours

Scroll right to see more
 ConditionsComfort  
Time TempWeatherWind HumidityBarometerVisibility
3:20 am
Sat, Jan 21
27 °FClear.6 mph93%30.04 "Hg10 mi
2:50 am27 °FClear.7 mph93%30.04 "Hg10 mi
2:20 am27 °FClear.7 mph93%30.04 "Hg10 mi
1:50 am27 °FClear.7 mph93%30.04 "Hg10 mi
1:20 am27 °FClear.7 mph93%30.04 "Hg10 mi
12:50 am27 °FClear.8 mph93%30.01 "Hg10 mi
12:20 am28 °FClear.7 mph86%30.01 "Hg10 mi
11:50 pm
Fri, Jan 20
28 °FClear.7 mph93%30.01 "Hg10 mi
11:20 pm28 °FClear.7 mph93%30.01 "Hg10 mi
10:50 pm28 °FPassing clouds.6 mph93%30.01 "HgN/A
10:20 pm28 °FPartly cloudy.9 mph100%29.98 "HgN/A
9:50 pm28 °FPassing clouds.10 mph100%29.98 "HgN/A
9:20 pm30 °FClear.10 mph93%29.98 "Hg10 mi
8:50 pm30 °FPassing clouds.7 mph93%29.95 "HgN/A
8:20 pm30 °FPassing clouds.7 mph93%29.95 "HgN/A
7:50 pm32 °FPartly cloudy.7 mph93%29.95 "HgN/A
7:20 pm32 °FPartly cloudy.7 mph93%29.95 "HgN/A
6:50 pm32 °FLight snow. Overcast.7 mph93%29.92 "Hg1 mi
6:20 pm32 °FLight snow. Overcast.8 mph93%29.92 "Hg2 mi
5:50 pm32 °FSnow flurries. Mostly cloudy.8 mph93%29.92 "Hg6 mi
5:20 pm32 °FSnow flurries. Mostly cloudy.7 mph93%29.92 "Hg6 mi
4:50 pm32 °FIce fog.7 mph93%29.92 "Hg3 mi
4:20 pm32 °FLight snow. Overcast.7 mph93%29.92 "Hg2 mi
3:50 pm32 °FLight snow. Cloudy.7 mph93%29.92 "Hg2 mi
3:20 pm30 °FLight snow. Broken clouds.10 mph100%29.92 "Hg2 mi
2:50 pm30 °FLight snow. Partly sunny.8 mph100%29.92 "Hg2 mi
2:20 pm30 °FLight snow. Partly sunny.8 mph93%29.92 "Hg4 mi
1:50 pm30 °FLight snow. Partly sunny.9 mph93%29.95 "Hg6 mi
1:20 pm30 °FLight snow. Partly sunny.9 mph93%29.95 "HgN/A
12:50 pm30 °FLight snow. Partly sunny.9 mph93%29.95 "HgN/A
12:20 pm30 °FLight snow. Partly sunny.9 mph93%29.98 "HgN/A
11:50 am30 °FPartly sunny.10 mph86%29.98 "HgN/A
11:20 am28 °FPartly sunny.12 mph86%30.01 "HgN/A
10:50 am27 °FScattered clouds.8 mph80%30.01 "HgN/A
10:20 am25 °FSunny.7 mph86%30.01 "Hg10 mi
9:50 am25 °FSunny.8 mph86%30.01 "Hg10 mi
9:20 am27 °FSunny.8 mph80%30.01 "Hg10 mi
8:50 am25 °FClear.7 mph86%30.01 "Hg10 mi
8:20 am25 °FClear.6 mph86%30.04 "Hg10 mi
7:50 am27 °FClear.6 mph80%30.04 "Hg10 mi
7:20 am25 °FClear.7 mph86%30.04 "Hg10 mi
6:50 am27 °FClear.9 mph80%30.04 "Hg10 mi
6:20 am23 °FClear.8 mph86%30.04 "Hg10 mi
5:50 am25 °FClear.9 mph80%30.04 "Hg10 mi
5:20 am21 °FClear.9 mph86%30.04 "Hg10 mi
4:50 am23 °FClear.8 mph80%30.04 "Hg10 mi
4:20 am27 °FClear.8 mph74%30.04 "Hg10 mi
Weather by CustomWeather, © 2017

See weather overviewHow to use our weather pages